Theta_e
332 334 333 333 333 332 330 330 331 332 332 331 330 328 327 325 323 322 319 314 313 312 311 310 308 305 303 303 303 303 302 302 303 305 304 303 302 301 302 302 301 302 303 307 313 314 313 314 311 309 308 306 303 301 299 301 301 300 301 301 302 304 303
334 332 332 332 332 331 330 329 330 332 331 330 329 327 326 324 322 319 315 312 311 311 309 307 304 303 302 302 302 302 302 302 302 302 302 302 302 302 302 302 302 301 301 302 306 310 312 312 310 309 309 309 310 307 302 300 302 303 304 304 304 304 303
333 330 330 330 328 328 329 330 331 331 330 329 328 325 324 322 319 316 312 311 310 309 306 304 302 302 302 302 302 301 301 301 301 301 301 301 301 302 303 306 308 308 307 306 306 309 310 310 310 308 307 309 311 310 305 302 304 305 304 304 304 303 303
331 330 330 328 326 327 329 330 331 330 328 327 326 324 322 319 316 313 310 310 308 305 303 302 302 302 301 301 301 301 301 301 301 301 301 301 300 300 301 304 306 306 307 307 306 309 310 310 310 309 307 307 308 309 306 304 305 304 303 303 303 302 302
330 329 331 329 327 327 329 330 330 328 326 325 324 322 320 316 313 311 309 308 305 303 302 301 301 301 301 301 300 300 300 300 300 300 300 300 300 300 300 300 301 300 301 301 301 304 307 309 310 309 308 307 308 308 306 306 305 304 302 302 302 302 301
331 331 332 330 328 328 329 330 329 327 325 324 322 321 318 314 311 309 308 306 303 302 301 301 301 301 301 300 300 300 300 300 300 300 300 300 299 299 299 299 299 299 299 299 299 299 303 306 307 308 308 308 309 307 306 306 305 304 302 301 302 302 301
333 332 332 331 329 330 330 330 328 326 324 323 321 319 315 311 310 308 306 304 302 301 301 300 300 300 300 300 300 300 300 300 300 299 299 299 299 299 299 299 299 299 298 299 299 298 299 301 301 304 307 308 308 306 305 305 304 304 302 301 302 301 300
332 330 331 331 330 330 329 329 327 326 324 322 320 317 313 311 309 307 305 302 301 300 300 300 300 300 300 300 300 299 299 299 299 299 299 299 299 299 299 299 299 299 299 298 299 298 298 298 298 300 303 307 308 305 305 306 305 304 302 301 302 301 300
330 329 331 331 330 330 328 328 328 326 323 322 319 315 312 310 308 306 303 301 300 300 300 300 300 300 300 299 299 299 299 299 299 299 299 299 299 299 298 299 298 298 298 298 298 298 297 297 297 298 299 302 305 305 305 305 305 304 302 301 302 301 300
329 330 331 330 330 329 328 329 328 325 322 321 319 314 311 309 307 304 301 300 300 300 300 300 299 299 299 299 299 299 299 299 298 298 298 298 298 298 298 298 298 298 298 298 298 297 298 297 297 297 297 298 301 303 304 305 306 303 301 302 302 301 299
330 331 331 330 330 329 329 329 327 324 322 321 317 313 310 308 305 302 300 300 300 299 300 299 299 299 299 299 299 299 298 298 298 298 298 298 298 298 298 298 298 298 297 297 297 297 297 297 297 297 297 297 297 299 302 304 305 303 301 301 301 301 300
331 331 331 331 330 329 329 329 326 323 322 319 315 312 310 307 304 301 300 300 299 299 299 299 299 299 299 299 298 298 298 298 298 298 298 298 298 298 298 298 297 297 297 297 297 297 297 297 298 297 297 297 297 297 299 302 304 303 302 301 300 301 301
330 331 331 331 330 329 329 328 325 323 321 318 314 311 308 305 302 300 299 299 299 299 299 299 299 298 298 298 298 298 298 298 298 298 298 297 297 297 297 297 297 297 297 297 297 297 297 297 297 297 298 298 298 296 297 300 303 303 302 301 300 302 302
330 331 331 330 329 329 328 327 325 323 321 319 314 309 306 303 300 299 299 299 299 299 299 299 298 298 298 298 298 297 297 297 297 297 297 297 297 297 297 297 297 297 297 298 298 298 298 298 299 298 298 299 298 297 297 299 301 303 302 301 301 303 303
331 331 330 329 329 329 328 327 325 323 322 319 313 307 305 302 299 299 299 299 299 299 299 299 298 298 298 298 297 297 297 297 297 297 297 297 297 297 296 296 296 296 296 297 298 298 298 299 300 299 298 298 298 297 297 298 301 303 302 301 302 303 303
330 330 330 329 329 329 327 326 324 323 322 319 311 306 304 301 299 299 298 298 299 298 298 298 298 298 298 298 297 297 298 297 296 296 296 296 296 296 296 296 296 296 296 296 297 297 297 298 299 298 298 298 298 297 297 298 301 303 303 302 303 303 303
330 330 329 328 329 328 326 325 324 322 321 317 308 305 304 301 298 298 298 299 299 298 298 298 298 298 297 297 297 297 297 296 297 297 297 296 297 296 296 296 296 296 296 296 297 297 297 298 298 298 298 299 300 298 298 300 302 303 302 303 303 303 303
330 330 329 328 328 328 326 325 323 321 321 316 308 306 304 300 299 299 299 300 300 298 298 298 298 298 297 297 297 297 297 297 297 298 297 297 297 296 296 297 297 297 297 296 297 297 296 297 298 297 296 298 299 298 298 301 302 302 302 303 303 303 303
330 330 329 328 328 327 325 324 322 321 319 314 309 306 303 301 302 301 301 302 301 299 298 298 299 299 297 297 297 298 297 297 297 297 296 296 296 296 297 297 297 297 296 296 296 296 296 296 297 296 296 297 297 297 299 301 302 301 302 302 302 302 302
330 330 329 327 328 327 325 324 322 320 318 313 309 305 303 303 304 304 305 305 303 300 298 300 300 299 297 297 298 298 297 297 296 296 296 296 295 296 296 297 297 296 296 296 296 296 296 296 296 296 296 296 296 296 299 301 301 301 301 301 302 302 302
330 330 328 327 327 326 325 323 321 319 316 312 309 305 305 305 305 306 308 306 303 301 299 301 302 300 299 299 298 298 297 297 297 297 296 296 295 296 296 296 296 296 296 296 296 296 297 296 297 296 296 296 296 296 297 299 300 300 300 301 301 302 301
331 330 328 327 326 325 324 323 320 317 315 312 309 306 307 307 305 308 309 305 303 301 300 302 303 301 301 300 298 297 298 298 298 297 297 296 296 296 296 296 297 296 296 297 296 297 296 296 297 296 296 296 296 296 296 297 298 298 299 300 301 301 301
331 329 327 327 326 324 324 322 319 316 314 312 308 306 308 308 307 309 308 305 305 302 300 304 304 302 302 301 298 299 300 300 299 298 298 298 297 297 296 296 297 296 296 297 296 296 296 296 296 296 296 296 296 296 295 295 296 296 297 299 301 300 300
330 328 327 326 325 323 322 320 318 316 314 312 307 304 307 308 308 309 308 306 306 302 302 304 302 300 301 301 300 302 302 301 302 301 300 299 298 298 297 296 296 296 296 297 296 296 296 296 296 296 296 296 296 296 295 295 295 295 295 297 299 299 299
329 328 327 325 324 322 321 319 318 316 315 312 306 304 306 307 308 309 309 308 306 303 302 303 300 298 299 299 301 303 304 304 304 303 302 301 300 299 298 297 296 296 296 296 296 297 296 296 296 296 296 296 296 296 296 295 295 296 296 296 296 297 298
328 327 326 324 324 322 320 320 319 317 314 311 307 306 307 308 308 309 309 309 307 303 301 300 298 297 297 297 298 303 306 306 305 305 304 304 303 302 299 297 296 296 296 296 296 297 297 296 296 296 296 296 296 296 296 296 296 296 296 296 295 296 296
327 325 324 325 325 323 321 320 319 317 314 310 307 306 306 307 308 308 307 308 308 304 300 298 297 296 296 296 296 301 306 306 305 306 305 305 305 304 302 301 300 298 296 296 296 297 296 297 297 298 299 299 298 298 296 295 296 296 296 296 295 295 295
327 326 326 326 326 323 321 320 317 316 314 310 307 305 303 304 306 306 306 307 308 305 300 297 297 296 296 296 296 301 306 306 305 306 305 304 303 302 301 303 304 301 298 296 296 296 296 296 298 299 301 301 301 301 299 296 295 296 296 296 296 296 296
328 328 327 327 326 323 321 319 316 314 313 311 308 306 302 301 302 305 306 306 307 306 302 297 296 296 296 296 296 300 305 305 305 306 305 302 301 299 298 300 303 301 298 296 296 296 296 296 297 300 301 301 302 303 302 298 295 296 296 296 296 296 296
328 328 328 327 325 323 320 318 316 314 313 311 307 304 302 301 301 302 304 305 308 308 303 297 296 296 295 296 296 299 304 305 305 306 305 301 300 300 297 298 302 301 298 296 296 296 296 296 297 299 300 301 302 303 301 297 295 296 296 296 296 296 297
328 328 327 326 325 323 319 317 317 316 315 314 308 303 301 300 300 301 302 303 306 307 303 297 296 296 295 296 295 297 303 306 305 306 306 301 301 303 298 296 300 301 299 297 296 296 296 296 297 297 297 300 302 302 299 297 296 296 296 296 298 299 300
328 328 327 326 324 323 320 318 318 316 315 314 310 304 299 299 300 301 301 300 302 304 302 297 296 296 295 295 294 296 303 307 305 306 306 302 302 304 300 295 297 298 298 297 296 296 297 296 297 297 296 300 302 300 297 296 296 296 296 298 301 301 301
328 328 327 326 324 323 321 318 317 315 313 312 309 304 300 299 298 298 299 298 297 300 303 301 297 295 295 295 294 296 303 307 306 306 306 304 303 304 301 296 295 296 296 296 296 296 297 296 297 297 296 299 299 297 296 296 296 296 298 300 302 301 300
327 328 327 325 324 323 321 318 316 314 312 310 307 303 301 301 299 297 297 296 297 300 303 302 299 297 295 294 294 296 302 306 306 306 306 304 304 304 302 298 296 295 296 296 296 296 296 296 297 296 296 297 297 296 296 296 296 298 300 301 301 300 300
327 327 325 324 323 322 320 317 315 313 312 309 306 302 301 300 299 297 295 296 299 300 299 298 298 297 295 294 294 295 299 304 305 306 306 305 304 304 303 301 299 297 296 296 296 296 296 297 296 296 296 296 296 296 296 296 297 300 301 301 301 300 300
327 326 324 323 322 321 319 316 314 312 310 307 304 301 300 299 298 296 295 295 297 297 295 296 298 297 295 294 294 294 297 302 304 305 305 305 304 303 303 303 301 299 296 296 296 296 296 296 297 296 296 296 296 296 296 297 300 301 301 300 300 300 300
327 325 323 322 321 319 318 315 313 311 309 306 303 301 299 298 297 296 296 295 295 294 295 297 298 296 294 294 294 293 295 299 303 304 304 304 304 304 303 303 302 300 297 296 296 296 296 296 297 296 296 296 296 296 297 299 301 301 300 300 300 300 300
Wind_Speed
18 16 16 16 14 13 12 10 10 9 9 8 5 4 3 4 5 6 9 10 10 10 10 10 10 10 11 11 11 12 12 13 12 11 10 9 9 8 7 6 6 6 6 7 8 4 1 3 3 4 8 11 11 11 10 5 6 13 16 17 14 9 13
18 16 15 15 12 11 11 11 10 10 9 7 5 4 4 6 7 9 11 11 11 11 11 11 11 11 12 13 13 13 12 12 12 13 13 12 11 10 8 7 7 7 6 6 8 3 2 1 2 1 5 10 9 9 13 13 10 11 11 13 13 10 14
20 19 17 16 15 13 13 12 11 11 9 7 5 5 6 9 10 11 12 12 11 11 11 11 12 12 13 13 14 14 13 11 12 12 13 12 11 12 11 9 7 6 6 5 5 5 3 2 2 1 2 5 5 6 11 15 8 5 8 9 11 11 14
21 21 19 20 20 17 15 13 12 11 7 6 7 7 8 10 12 13 12 12 12 12 12 12 13 14 14 14 14 14 14 13 12 12 12 12 11 11 12 11 10 9 8 7 7 6 4 3 2 2 2 3 3 3 7 12 7 4 8 9 10 11 13
21 20 18 19 19 17 16 15 13 10 6 5 8 10 11 12 13 13 13 13 13 13 13 14 15 16 15 15 14 14 14 14 13 13 13 13 12 12 12 11 11 11 10 9 9 9 6 5 3 3 3 4 4 1 3 6 6 5 9 11 11 11 13
21 19 18 18 17 16 15 14 12 9 7 5 8 11 13 14 14 14 14 14 14 14 15 15 16 16 15 15 14 14 14 13 13 13 13 13 13 12 12 11 11 11 11 10 10 10 9 6 5 4 5 4 3 4 3 3 5 6 10 12 11 12 14
23 21 18 18 17 16 14 13 11 8 7 7 10 13 14 15 15 15 15 14 14 15 16 16 16 16 15 14 14 14 13 13 13 13 12 12 12 12 12 11 11 11 10 10 10 10 10 9 9 8 7 4 2 5 5 4 6 8 12 13 11 12 16
24 21 18 18 17 15 12 12 10 8 7 8 11 15 16 16 16 16 15 15 15 16 16 17 17 16 16 15 14 14 13 13 13 13 13 12 12 11 11 11 11 11 10 10 9 10 10 10 11 12 10 6 4 6 6 5 7 9 13 14 11 13 18
23 19 18 17 17 14 12 11 11 10 10 9 11 16 16 16 16 16 16 16 17 17 17 17 17 16 16 15 14 14 14 14 13 13 13 12 12 11 11 11 10 10 10 10 10 9 10 11 13 13 13 10 7 6 6 6 7 8 13 14 13 14 19
22 20 19 18 18 16 14 13 13 12 11 10 11 16 17 17 17 17 17 18 18 19 19 18 17 16 16 15 15 15 15 14 14 14 13 12 12 11 11 11 10 10 10 10 10 10 11 12 14 14 14 14 11 8 7 7 7 10 14 15 14 17 21
24 23 22 20 19 18 16 15 15 12 11 10 13 17 18 18 19 18 19 19 19 20 20 19 18 17 16 16 16 15 15 14 14 13 13 12 11 11 11 10 10 10 10 10 10 10 11 13 14 14 14 15 14 11 9 7 7 10 15 16 16 19 22
22 22 23 22 20 19 17 16 15 14 13 13 15 18 19 19 19 19 20 20 21 21 20 20 19 18 17 16 16 15 15 14 13 13 12 12 11 10 10 10 10 11 11 11 11 11 11 13 13 13 14 14 14 14 12 8 6 9 13 16 18 19 20
22 22 23 22 20 19 18 16 15 14 14 15 17 19 20 20 20 20 20 21 22 22 21 20 19 18 17 17 16 16 15 14 13 13 13 12 11 11 10 10 10 10 11 11 10 11 12 13 13 13 13 12 12 13 13 9 7 9 12 15 18 17 18
23 25 25 22 21 19 18 16 15 15 15 16 18 20 21 20 20 21 21 22 22 22 21 20 19 18 18 17 17 16 15 15 14 13 13 12 12 11 10 10 10 10 11 11 10 9 10 11 10 10 11 10 9 11 13 11 8 11 13 15 17 16 17
25 27 26 23 23 20 18 17 16 15 16 17 19 21 21 20 20 21 22 22 23 22 21 20 20 19 18 17 17 16 15 15 14 13 13 12 12 11 11 10 10 10 10 11 10 8 9 9 7 7 9 9 9 10 12 12 9 11 14 16 17 17 18
27 28 26 25 25 22 18 16 16 16 16 18 19 21 20 20 21 22 23 23 23 22 21 21 20 19 18 17 17 17 16 15 14 13 13 12 12 11 11 10 10 10 10 11 10 9 9 9 7 7 8 8 9 10 11 12 10 11 14 16 16 16 18
29 28 27 26 25 22 18 15 16 17 17 18 20 21 20 21 22 23 23 23 22 21 21 21 21 19 17 17 16 16 16 15 14 14 13 13 12 11 11 10 10 10 10 10 9 8 8 8 7 7 7 6 6 8 10 10 9 11 13 15 16 16 17
31 29 27 26 24 22 18 15 16 18 18 19 21 22 21 21 22 23 23 22 21 21 21 21 20 19 18 17 16 15 15 15 15 14 14 13 12 12 11 10 10 9 9 9 9 7 6 7 7 6 7 6 5 7 9 8 9 10 12 14 15 15 16
32 29 28 26 24 22 18 16 17 19 18 19 21 22 22 21 22 22 22 21 20 21 21 20 19 19 19 18 16 15 15 15 15 14 14 13 13 12 11 10 9 9 9 8 8 7 6 7 7 7 7 7 7 8 9 8 9 10 11 13 13 14 16
32 30 28 27 24 21 18 17 18 19 18 20 22 22 22 21 22 21 19 19 20 20 21 19 19 19 18 18 16 16 16 16 16 15 15 14 13 12 11 10 9 9 8 8 7 6 5 6 6 7 7 8 9 10 8 7 9 10 11 12 12 14 15
31 30 28 26 24 22 19 17 18 18 18 20 21 21 21 21 21 20 18 20 20 20 20 19 19 19 18 18 17 16 16 17 16 16 15 15 14 12 11 10 9 8 7 6 6 5 4 5 6 6 7 8 10 11 9 7 8 9 10 11 12 13 15
31 30 27 25 24 21 18 18 18 18 19 20 21 20 20 21 21 19 19 21 21 21 21 19 19 19 18 18 17 16 16 16 16 16 15 14 13 12 11 9 8 8 6 5 5 4 4 5 5 6 7 8 9 11 11 9 9 10 10 11 11 13 15
30 29 27 25 23 21 19 19 19 18 18 20 21 21 20 20 20 19 19 21 21 22 22 19 20 21 19 18 17 16 16 16 15 15 15 14 13 11 10 9 7 6 6 5 4 4 4 4 5 6 7 8 9 10 11 11 11 12 12 10 11 14 15
30 29 27 26 23 21 20 19 19 19 19 20 22 23 22 21 20 20 20 21 22 22 22 21 22 24 21 19 17 16 16 16 14 14 14 14 13 11 10 8 7 6 5 4 4 4 4 4 6 7 7 8 10 11 12 12 13 15 15 13 12 14 15
30 28 27 27 24 24 24 21 20 20 21 23 24 24 23 22 21 20 20 21 22 22 22 23 24 24 22 21 19 16 15 15 14 14 14 13 12 11 10 8 7 6 4 3 3 3 3 4 5 6 6 8 9 10 11 13 14 14 16 17 15 14 15
28 28 28 28 25 26 26 23 22 22 22 23 24 23 22 21 21 21 20 20 21 23 24 25 24 23 22 21 21 18 14 13 14 13 12 12 11 10 10 8 7 5 3 2 2 1 1 3 4 5 7 8 9 10 11 12 13 13 16 17 17 15 16
27 29 29 28 26 26 25 21 22 23 23 24 24 24 24 22 21 22 22 21 21 22 25 25 23 23 22 21 22 19 14 12 13 12 12 13 12 11 11 8 6 5 4 4 3 3 2 1 3 5 6 7 9 11 12 13 14 15 17 17 16 16 18
31 31 29 27 25 23 22 21 22 23 24 25 24 24 26 25 24 23 23 21 20 21 24 24 22 23 22 21 21 20 15 13 13 12 13 15 15 15 14 11 8 7 7 5 4 3 2 1 2 2 3 4 5 7 9 11 12 12 15 15 14 15 18
31 30 27 25 23 22 22 23 24 23 24 25 24 23 25 27 26 25 23 22 20 20 24 24 22 23 23 21 23 22 16 13 13 12 13 15 15 14 14 13 11 9 9 7 4 3 2 1 2 1 1 2 2 4 7 8 8 9 12 12 12 14 17
28 28 25 24 22 22 24 25 26 25 25 26 26 24 24 25 26 26 24 22 18 18 23 24 22 23 23 22 24 23 15 11 13 12 12 15 14 13 14 13 10 9 9 8 6 5 4 2 2 2 1 2 2 3 7 9 9 10 10 11 13 17 20
27 27 25 24 23 23 27 27 25 23 22 25 28 28 26 24 24 24 23 22 19 18 23 25 22 23 24 23 25 24 15 11 13 12 12 15 13 12 15 15 12 11 10 9 7 6 4 3 3 2 2 1 2 4 7 8 8 9 10 13 16 19 20
27 26 24 24 25 26 28 26 23 22 22 25 29 31 29 26 24 21 21 22 23 21 21 23 23 24 25 24 25 23 15 10 13 13 12 14 13 11 14 15 14 13 11 9 8 7 5 5 3 3 3 1 3 6 7 8 9 10 13 16 16 17 17
29 27 25 26 26 26 27 27 26 26 26 27 31 33 33 29 27 25 22 23 24 21 19 22 23 24 25 24 25 24 17 10 12 13 12 13 13 12 14 15 14 13 11 9 9 7 6 5 4 3 3 2 4 5 6 8 9 12 15 16 14 15 15
28 28 27 29 28 27 28 28 27 27 27 30 32 33 32 30 28 29 28 26 24 22 22 23 22 22 24 24 24 25 21 14 11 13 13 13 12 12 13 14 14 14 12 10 9 8 7 6 4 4 3 3 4 5 6 8 10 12 14 13 13 14 14
26 26 27 30 30 28 27 27 26 27 28 30 30 29 29 30 29 29 29 28 25 25 27 27 23 21 23 24 24 26 25 20 15 14 12 12 12 12 12 13 14 13 12 11 10 9 8 6 5 4 4 4 4 5 7 9 11 11 10 11 12 13 14
27 27 28 29 29 27 26 26 26 27 27 28 30 29 28 29 29 28 29 29 28 27 27 28 28 25 24 24 24 26 26 23 20 18 14 11 11 11 11 14 17 15 12 12 11 10 8 7 5 4 5 5 5 6 7 9 10 9 10 11 11 12 14
26 27 28 28 27 26 26 26 26 27 28 29 30 30 29 30 30 29 29 29 29 28 26 28 31 28 24 25 25 26 27 25 23 22 18 12 10 11 12 17 20 17 13 12 11 10 8 6 5 5 5 5 6 6 7 8 8 8 11 11 11 12 13
Wind_Direction
206 206 199 190 187 188 191 191 187 195 212 220 231 255 254 219 195 187 184 177 173 175 181 183 182 183 182 180 179 174 169 165 158 152 147 144 151 157 161 160 155 158 169 184 186 196 261 190 201 296 321 335 0 26 27 20 353 5 15 13 11 355 343
197 198 191 184 181 187 196 195 191 204 221 221 235 255 223 190 185 187 183 177 178 180 181 180 177 176 173 168 166 163 163 166 163 159 154 150 147 140 137 135 132 128 132 163 177 172 15 110 163 248 291 307 323 345 2 11 9 3 360 354 358 352 344
194 190 182 179 181 192 197 192 199 217 222 216 229 231 196 183 185 185 183 181 182 182 180 174 169 168 164 161 158 153 156 160 159 156 153 153 153 150 144 133 126 119 111 119 123 102 61 63 62 24 272 294 293 280 332 1 13 346 344 347 347 345 346
194 187 181 180 184 194 195 191 204 215 212 208 208 197 183 182 184 184 183 183 183 180 176 170 164 162 158 155 152 150 151 151 149 148 146 146 148 150 148 142 142 136 123 116 107 96 65 48 35 6 359 329 313 239 316 357 24 14 357 355 348 346 348
193 186 184 183 185 193 193 193 204 202 191 203 192 180 184 185 183 184 184 184 184 178 172 168 163 158 155 153 151 150 149 146 145 144 143 143 142 140 137 133 134 129 121 118 113 109 91 56 26 10 14 352 354 1 328 1 21 14 3 358 352 352 348
193 188 186 185 186 191 191 192 199 190 185 200 183 179 186 184 183 186 186 185 182 177 171 165 161 158 155 154 152 149 147 144 142 143 142 141 137 134 131 126 124 120 114 113 107 104 99 76 61 48 18 3 9 6 7 33 22 6 3 360 355 354 349
192 189 187 186 185 187 187 186 187 186 196 202 184 183 185 183 187 189 187 185 180 175 170 164 160 158 156 155 153 149 146 144 142 141 138 136 134 129 127 124 120 117 109 106 102 97 95 85 78 70 34 12 24 15 17 29 21 10 1 359 360 356 352
186 184 184 183 181 183 182 180 183 185 199 200 184 186 188 186 190 190 186 184 179 173 169 164 162 160 160 158 154 152 150 146 142 138 135 133 132 127 125 123 117 114 107 102 101 96 93 84 76 73 55 38 32 23 22 19 19 13 0 359 2 358 357
182 180 181 181 179 181 177 183 196 188 182 186 184 188 190 188 191 190 185 183 177 172 167 165 164 163 161 158 156 155 151 146 140 137 136 133 131 127 125 121 114 110 106 102 101 94 91 83 75 72 66 60 50 23 12 18 20 5 359 1 359 359 4
180 179 180 181 181 180 178 193 210 195 177 182 188 191 191 190 191 189 185 181 176 172 168 166 166 164 162 160 159 158 151 146 141 138 137 134 131 129 123 119 115 110 106 103 98 92 88 82 75 71 67 64 60 43 16 10 9 358 2 5 357 0 7
181 183 183 182 181 179 184 202 212 202 191 193 193 194 194 193 192 188 184 180 176 174 170 168 166 165 165 164 161 156 150 145 143 141 139 135 131 128 125 120 114 111 106 101 94 86 82 79 75 71 68 64 58 56 42 13 357 353 0 5 4 4 4
182 183 184 183 182 184 195 207 209 201 198 198 197 197 196 194 192 187 182 179 176 175 171 167 166 166 168 166 160 154 150 146 145 143 140 137 133 128 125 120 116 113 105 98 92 85 80 76 74 69 66 61 52 53 52 27 351 344 349 360 8 4 356
182 184 185 185 185 191 200 208 208 201 196 197 199 198 196 195 191 185 181 180 178 176 172 167 167 169 169 165 158 153 150 147 147 145 141 139 135 130 125 121 119 114 107 100 91 85 80 73 70 66 63 57 45 43 48 34 350 336 345 357 3 357 348
184 187 187 188 190 195 200 205 207 201 197 202 201 197 195 194 190 184 181 181 180 177 172 169 169 171 169 163 157 153 150 149 148 146 144 142 138 132 127 123 119 114 111 106 94 84 80 71 62 59 60 55 42 35 39 35 1 338 349 1 359 350 344
185 188 188 190 192 195 200 204 204 200 201 204 201 195 195 192 188 185 183 181 180 178 174 171 171 173 170 163 158 154 151 152 152 149 146 145 141 137 132 128 123 116 112 108 102 98 92 85 69 60 61 53 42 35 32 32 10 336 339 352 353 347 343
187 189 189 190 192 196 202 202 201 202 203 204 198 193 193 191 187 185 182 181 180 177 176 175 175 174 169 164 161 157 154 156 155 151 149 147 144 140 136 134 129 122 116 108 102 97 95 92 79 64 60 45 31 29 29 27 3 331 329 339 343 340 339
187 190 189 190 194 199 203 202 200 203 205 203 196 191 192 191 188 185 182 181 180 178 178 179 176 172 168 167 164 159 157 158 156 153 152 151 148 145 143 139 133 124 119 113 104 98 94 92 81 63 60 48 15 10 24 18 344 325 325 327 332 334 336
190 192 190 191 197 201 203 202 200 203 205 200 193 191 192 190 187 186 181 179 181 181 181 179 175 171 171 171 165 160 160 160 160 160 159 157 153 150 148 144 138 130 123 119 113 107 97 91 85 68 61 56 23 14 26 7 332 327 325 320 327 332 335
192 194 191 193 199 200 199 200 201 204 203 195 191 192 192 188 185 184 180 180 184 185 182 178 175 175 176 173 166 164 166 166 166 164 162 162 159 157 155 149 145 139 132 126 120 114 100 87 84 69 56 53 42 35 28 357 333 333 328 324 329 333 336
192 193 192 196 200 198 197 200 203 205 199 191 192 194 190 185 184 181 178 181 185 186 183 178 177 179 178 175 171 172 172 170 168 166 165 167 166 164 161 155 152 147 139 134 125 114 102 86 78 65 48 42 43 41 27 354 341 339 333 332 335 336 340
192 193 193 197 199 196 196 201 202 202 195 190 193 192 187 186 184 178 179 183 186 188 184 179 181 182 179 177 177 177 176 172 171 171 169 171 169 165 165 161 157 151 141 135 125 109 94 78 68 59 43 34 37 39 32 8 351 346 342 340 339 339 341
192 194 194 196 196 195 198 202 199 197 193 191 192 188 185 188 183 178 183 186 188 191 185 180 184 184 180 182 181 178 177 175 175 174 171 171 169 169 172 167 158 154 144 134 125 104 81 64 56 48 37 30 30 34 36 28 11 2 356 348 342 343 344
193 194 195 194 194 196 201 201 196 194 192 192 192 186 185 188 183 181 187 187 190 193 187 185 190 186 181 183 182 178 178 177 175 174 171 170 170 173 177 170 160 159 152 137 124 96 71 54 47 40 33 28 28 30 32 31 27 21 13 359 345 346 346
192 194 194 193 193 195 197 195 193 196 196 195 195 191 188 188 184 184 188 189 193 194 189 192 197 191 185 182 179 179 180 177 174 176 175 173 173 175 178 174 168 170 161 143 121 88 63 43 35 32 27 26 26 27 26 25 25 23 20 15 0 348 344
193 195 194 194 196 197 198 196 196 201 203 199 196 193 190 189 187 186 187 191 196 196 195 201 201 196 192 187 180 178 181 179 178 180 179 176 175 178 180 179 179 179 171 146 113 79 57 43 34 26 25 28 26 25 24 22 21 18 17 19 13 354 345
195 194 193 197 201 202 203 204 204 205 204 198 194 192 189 188 189 189 186 191 198 201 203 205 202 198 197 195 185 175 177 186 184 182 182 178 177 183 185 189 190 184 178 162 137 117 44 33 31 20 19 23 22 23 24 19 16 14 14 17 15 2 353
193 190 194 202 207 206 206 208 209 208 204 199 196 195 193 190 191 193 192 193 199 204 208 207 203 198 198 200 190 173 171 191 190 185 188 184 182 186 186 190 204 205 201 193 178 178 190 58 40 24 8 3 3 8 11 10 9 10 11 13 11 4 3
197 196 201 208 211 208 207 211 212 209 207 203 199 198 198 196 196 197 195 195 199 206 211 208 203 201 199 199 191 175 170 189 192 190 197 192 190 192 187 182 193 212 219 214 202 197 193 159 88 48 352 336 339 338 343 354 1 2 5 9 7 3 6
203 205 209 211 209 206 206 210 213 208 205 204 202 202 203 202 201 199 197 197 198 207 214 210 203 205 203 197 191 181 175 188 193 194 202 199 195 198 195 185 186 208 223 220 206 204 211 191 122 104 313 320 330 307 307 324 343 353 359 2 360 359 4
209 210 211 209 207 207 207 210 214 212 209 207 205 205 206 204 204 204 202 198 195 205 217 213 205 207 206 198 193 187 178 190 198 196 205 205 197 199 201 189 183 211 230 226 209 200 208 201 148 149 238 299 331 305 294 309 334 351 355 354 355 360 3
214 211 208 205 204 209 212 214 219 223 223 220 215 212 210 208 206 208 207 203 199 206 218 216 207 208 209 202 198 190 179 193 203 198 207 207 196 204 212 198 189 207 222 221 211 201 202 202 178 176 202 269 323 294 289 312 337 344 348 356 358 357 355
216 211 207 205 205 211 215 216 219 224 226 224 219 215 212 209 208 209 210 210 209 210 219 219 212 210 211 206 200 190 179 198 209 200 206 210 197 206 222 212 205 216 222 216 209 203 204 208 198 195 207 251 295 285 297 327 338 339 354 3 355 344 342
217 214 210 207 209 214 217 216 216 218 218 217 215 213 211 210 210 212 213 217 218 214 219 224 218 214 213 209 201 191 178 192 216 206 204 210 202 207 223 220 215 223 227 219 213 209 210 211 211 225 233 251 274 286 315 333 334 346 3 3 343 333 337
220 218 213 210 211 215 218 217 217 218 218 217 215 215 215 214 214 213 213 216 218 214 217 223 221 219 218 211 203 195 180 176 207 213 207 209 205 209 225 228 224 225 225 222 220 216 215 216 222 241 259 270 283 308 327 327 338 360 4 348 330 332 338
224 219 214 212 214 218 220 218 218 219 220 220 217 216 217 216 213 210 210 211 214 216 220 222 218 220 224 217 206 201 189 178 188 202 205 212 212 210 219 230 232 229 223 223 225 222 221 226 232 249 274 289 305 322 324 331 353 6 349 328 328 334 336
226 219 215 215 216 219 220 217 217 220 220 218 216 215 216 214 211 210 211 214 219 222 224 222 217 219 226 221 210 205 199 189 185 190 193 205 219 219 216 225 235 236 228 225 229 227 226 231 241 258 277 294 311 314 321 348 8 357 325 324 333 333 333
227 222 218 217 216 218 219 218 218 219 217 214 214 214 213 212 210 211 213 218 222 223 220 220 221 222 225 223 216 209 205 199 192 190 186 185 209 222 220 225 233 237 234 231 232 232 233 239 252 264 276 295 307 310 331 359 358 326 316 326 330 329 333